Location: Bakhuizen
(52.8696°N, 5.4575°E)
Time: 09:11:17
(UTC+00:00)

USA 308 - Pass Details

Date: 11 May 2021
Orbit: 568 x 576 km, 54.0° (Epoch: 10 May)

Event Time Altitude Azimuth Distance (km) Brightness Sun altitude
Rises 21:20:24 0° 289° (WNW) 2,786 7.3 -13.3°
Reaches altitude 10° 21:22:46 10° 281° (W) 1,886 6.2 -13.5°
Maximum altitude 21:26:42 36° 215° (SW) 926 3.7 -13.8°
Enters shadow 21:28:44 23° 165° (SSE) 1,258 4.1 -14.0°
